Cahokia, IL

7:25 AM CST on December 16, 2019 (GMT -0600)
Saint Louis Downtown

Weather History for KCPS - November, 2019

Change the Weather History Date:

Sunday, November 17, 2019

  Actual Average Record
Temperature  
Mean Temperature 38 °F -  
Max Temperature 50 °F 66 °F 82 °F (2016)
Min Temperature 27 °F 53 °F 5 °F (1959)
Degree Days  
Heating Degree Days 26    
Moisture  
Dew Point 34 °F    
Average Humidity 77    
Maximum Humidity 96    
Minimum Humidity 54    
Precipitation  
Precipitation 0.01 in - - ()
Sea Level Pressure  
Sea Level Pressure 29.99 in    
Wind  
Wind Speed 3 mph (SW)    
Max Wind Speed 10 mph    
Max Gust Speed -    
Visibility 8 miles    
Events Rain    
Averages and records for this station are not official NWS values.
T = Trace of Precipitation, MM = Missing Value Source: NWS Daily Summary

Daily Weather History Graph

Daily Weather History Graph

Search for Another Location

Airport or City:

Astronomy

Nov. 17, 2019 Rise Set
Actual Time 6:44 AM CST 4:46 PM CST
Civil Twilight 6:16 AM CST 5:14 PM CST
Nautical Twilight 5:43 AM CST 5:46 PM CST
Astronomical Twilight 5:12 AM CST 6:18 PM CST
Moon 9:23 PM CST (11/17) 11:29 AM CST (11/17)
Length of Visible Light 10h 58m
Length of Day
10h 01m
Waning Gibbous, 73% of the Moon is Illuminated
Nov 17
Waning Gibbous
Nov 19
Last Quarter
Nov 26
New
Dec 4
First Quarter
Dec 11
Full

Hourly Weather History & Observations

Time (CST) Temp. Windchill Dew Point Humidity Pressure Visibility Wind Dir Wind Speed Gust Speed Precip Events Conditions
12:53 AM 28.9 °F - 26.1 °F 89% 30.18 in 3.0 mi Calm Calm - N/A   Clear
1:53 AM 27.0 °F - 26.1 °F 96% 30.15 in 4.0 mi Calm Calm - N/A   Clear
2:53 AM 27.0 °F 23.0 °F 24.1 °F 89% 30.14 in 4.0 mi SE 3.5 mph - N/A   Clear
4:53 AM 28.9 °F - 27.0 °F 92% 30.11 in 4.0 mi Calm Calm - N/A   Clear
5:53 AM 30.0 °F - 28.0 °F 92% 30.10 in 5.0 mi Calm Calm - N/A   Clear
6:53 AM 32.0 °F 28.7 °F 30.0 °F 92% 30.10 in 5.0 mi South 3.5 mph - N/A   Clear
7:53 AM 34.0 °F 29.8 °F 30.9 °F 89% 30.08 in 4.0 mi South 4.6 mph - N/A   Clear
8:53 AM 37.0 °F 33.3 °F 32.0 °F 82% 30.08 in 5.0 mi SSE 4.6 mph - N/A   Haze
9:53 AM 39.9 °F 37.8 °F 34.0 °F 79% 30.05 in 6.0 mi South 3.5 mph - N/A   Clear
10:53 AM 44.1 °F 39.0 °F 35.1 °F 71% 30.01 in 6.0 mi SE 9.2 mph - N/A   Clear
11:53 AM 46.9 °F - 36.0 °F 66% 29.99 in 9.0 mi SW 4.6 mph - N/A   Clear
12:53 PM 50.0 °F - 35.1 °F 57% 29.96 in 10.0 mi SW 8.1 mph - N/A   Clear
1:53 PM 50.0 °F - 34.0 °F 54% 29.93 in 10.0 mi SSW 6.9 mph - N/A   Clear
2:53 PM 50.0 °F - 34.0 °F 54% 29.90 in 10.0 mi South 6.9 mph - N/A   Mostly Cloudy
3:53 PM 50.0 °F - 35.1 °F 57% 29.90 in 10.0 mi Calm Calm - N/A   Overcast
4:53 PM 46.9 °F - 37.0 °F 68% 29.91 in 10.0 mi Calm Calm - 0.00 in Rain Light Rain
5:53 PM 45.0 °F - 37.9 °F 76% 29.91 in 10.0 mi Calm Calm - 0.00 in   Overcast
6:53 PM 45.0 °F 40.1 °F 37.9 °F 76% 29.92 in 10.0 mi WNW 9.2 mph - 0.01 in Rain Light Rain
7:53 PM 44.1 °F 41.5 °F 39.0 °F 82% 29.92 in 10.0 mi WNW 4.6 mph - 0.00 in   Overcast
8:53 PM 45.0 °F 41.8 °F 37.9 °F 76% 29.92 in 10.0 mi WNW 5.8 mph - N/A   Overcast
9:43 PM 44.1 °F 40.8 °F 37.9 °F 79% 29.91 in 10.0 mi WNW 5.8 mph - N/A   Overcast
9:53 PM 45.0 °F 41.2 °F 37.9 °F 76% 29.92 in 10.0 mi WNW 6.9 mph - N/A   Overcast
10:30 PM 44.1 °F 38.6 °F 37.9 °F 79% 29.91 in 10.0 mi NW 10.4 mph - N/A   Overcast
10:53 PM 44.1 °F 39.5 °F 37.9 °F 79% 29.91 in 10.0 mi NW 8.1 mph - N/A   Overcast
11:53 PM 43.0 °F 37.7 °F 37.9 °F 82% 29.91 in 10.0 mi WNW 9.2 mph - N/A   Overcast